When you browse on this site, cookies collect data to enhance your experience and personalize the content and advertising you see.
Visit our Privacy Policy to learn more. By continuing to use the site, you agree to this use of cookies and data.
  • In Belgien
  • Länderverzeichnis
  • Für 7 Tage
  • Wassertemperatur
  • Wetterkarte
  • Widgets
  • user-avatar
    Anmelden

    Stündliche Wetter Maracay

    Heute, 5 April, Sonntag

    Zeit Temperatur Niederschläge Wind Luftdruck Luftfeuchtigkeit
    00:00 +26°C° 0 mm 1 m/S 710 mmHg 83%
    01:00 +26°C° 0 mm 1 m/S 709 mmHg 81%
    02:00 +26°C° 0 mm 1 m/S 709 mmHg 83%
    03:00 +25°C° 0 mm 1 m/S 709 mmHg 85%
    04:00 +23°C° 0 mm 0 m/S 709 mmHg 86%
    05:00 +24°C° 0 mm 0 m/S 710 mmHg 84%
    06:00 +26°C° 0 mm 1 m/S 710 mmHg 81%
    07:00 +27°C° 0 mm 1 m/S 711 mmHg 78%
    08:00 +28°C° 0 mm 1 m/S 711 mmHg 71%
    09:00 +30°C° 0 mm 1 m/S 712 mmHg 64%
    10:00 +32°C° 0 mm 2 m/S 712 mmHg 56%
    11:00 +32°C° 0 mm 2 m/S 711 mmHg 53%
    12:00 +34°C° 0 mm 2 m/S 711 mmHg 49%
    13:00 +35°C° 0 mm 2 m/S 710 mmHg 45%
    14:00 +35°C° 0 mm 2 m/S 709 mmHg 47%
    15:00 +34°C° 0 mm 2 m/S 709 mmHg 49%
    16:00 +32°C° 0 mm 2 m/S 708 mmHg 52%
    17:00 +31°C° 0 mm 2 m/S 709 mmHg 59%
    18:00 +29°C° 0 mm 2 m/S 709 mmHg 66%
    19:00 +28°C° 0 mm 2 m/S 710 mmHg 74%
    20:00 +27°C° 0 mm 2 m/S 710 mmHg 76%
    21:00 +27°C° 0 mm 2 m/S 711 mmHg 78%
    22:00 +26°C° 0 mm 1 m/S 711 mmHg 80%
    23:00 +26°C° 0 mm 1 m/S 711 mmHg 82%

    Morgen, 6 April, Montag

    Zeit Temperatur Niederschläge Wind Luftdruck Luftfeuchtigkeit
    00:00 +26°C° 0 mm 1 m/S 710 mmHg 84%
    01:00 +25°C° 0 mm 1 m/S 710 mmHg 86%
    02:00 +25°C° 0 mm 1 m/S 710 mmHg 87%
    03:00 +25°C° 0 mm 1 m/S 710 mmHg 87%
    04:00 +25°C° 0 mm 1 m/S 710 mmHg 88%
    05:00 +26°C° 0 mm 1 m/S 711 mmHg 85%
    06:00 +26°C° 0 mm 1 m/S 711 mmHg 81%
    07:00 +25°C° 0 mm 0 m/S 712 mmHg 78%
    08:00 +29°C° 0 mm 1 m/S 712 mmHg 70%
    09:00 +30°C° 0 mm 1 m/S 713 mmHg 62%
    10:00 +32°C° 0 mm 1 m/S 713 mmHg 54%
    11:00 +34°C° 0 mm 2 m/S 712 mmHg 51%
    12:00 +35°C° 0 mm 2 m/S 711 mmHg 49%
    13:00 +35°C° 0 mm 2 m/S 711 mmHg 47%
    14:00 +35°C° 0 mm 2 m/S 710 mmHg 50%
    15:00 +34°C° 0 mm 2 m/S 710 mmHg 53%
    16:00 +32°C° 0 mm 2 m/S 709 mmHg 57%
    17:00 +30°C° 0 mm 2 m/S 710 mmHg 63%
    18:00 +29°C° 0 mm 2 m/S 710 mmHg 70%
    19:00 +28°C° 0 mm 2 m/S 710 mmHg 76%
    20:00 +27°C° 0 mm 1 m/S 711 mmHg 78%
    21:00 +27°C° 0 mm 1 m/S 711 mmHg 79%
    22:00 +27°C° 0 mm 1 m/S 712 mmHg 81%
    23:00 +26°C° 0 mm 1 m/S 711 mmHg 83%

    übermorgen, 7 April, Dienstag

    Zeit Temperatur Niederschläge Wind Luftdruck Luftfeuchtigkeit
    00:00 +26°C° 0 mm 1 m/S 711 mmHg 84%
    01:00 +26°C° 0 mm 1 m/S 711 mmHg 86%
    02:00 +25°C° 0 mm 1 m/S 711 mmHg 87%
    03:00 +25°C° 0 mm 1 m/S 711 mmHg 88%
    04:00 +25°C° 0 mm 1 m/S 711 mmHg 89%
    05:00 +26°C° 0 mm 1 m/S 711 mmHg 86%
    06:00 +26°C° 0 mm 1 m/S 712 mmHg 82%
    07:00 +27°C° 0 mm 1 m/S 712 mmHg 79%
    08:00 +29°C° 0 mm 1 m/S 713 mmHg 71%
    09:00 +30°C° 0 mm 1 m/S 713 mmHg 63%
    10:00 +32°C° 0 mm 1 m/S 713 mmHg 55%
    11:00 +33°C° 0 mm 1 m/S 713 mmHg 52%
    12:00 +34°C° 0 mm 2 m/S 712 mmHg 49%
    13:00 +35°C° 0 mm 2 m/S 711 mmHg 46%
    14:00 +34°C° 0 mm 2 m/S 711 mmHg 50%
    15:00 +32°C° 0 mm 2 m/S 710 mmHg 54%
    16:00 +31°C° 0 mm 3 m/S 709 mmHg 58%
    17:00 +30°C° 0 mm 2 m/S 709 mmHg 65%
    18:00 +28°C° 0 mm 2 m/S 710 mmHg 72%
    19:00 +27°C° 0 mm 2 m/S 710 mmHg 79%
    20:00 +26°C° 0 mm 2 m/S 710 mmHg 81%
    21:00 +26°C° 0 mm 2 m/S 711 mmHg 82%
    22:00 +26°C° 0 mm 2 m/S 711 mmHg 83%
    23:00 +25°C° 0 mm 2 m/S 711 mmHg 85%

    8 April, Mittwoch

    Zeit Temperatur Niederschläge Wind Luftdruck Luftfeuchtigkeit
    00:00 +25°C° 0 mm 1 m/S 710 mmHg 86%
    01:00 +25°C° 0 mm 1 m/S 710 mmHg 87%
    02:00 +25°C° 0 mm 1 m/S 710 mmHg 87%
    03:00 +25°C° 0 mm 1 m/S 710 mmHg 88%
    04:00 +25°C° 0 mm 1 m/S 710 mmHg 89%
    05:00 +25°C° 0 mm 1 m/S 711 mmHg 86%
    06:00 +26°C° 0 mm 1 m/S 711 mmHg 83%
    07:00 +27°C° 0 mm 1 m/S 712 mmHg 79%
    08:00 +28°C° 0 mm 1 m/S 712 mmHg 72%
    09:00 +30°C° 0 mm 1 m/S 712 mmHg 64%
    10:00 +32°C° 0 mm 1 m/S 712 mmHg 56%
    11:00 +33°C° 0 mm 1 m/S 712 mmHg 53%
    12:00 +34°C° 0 mm 1 m/S 711 mmHg 49%
    13:00 +35°C° 0 mm 1 m/S 710 mmHg 46%
    14:00 +35°C° 0 mm 2 m/S 710 mmHg 48%
    15:00 +34°C° 0 mm 2 m/S 709 mmHg 51%
    16:00 +34°C° 0 mm 2 m/S 709 mmHg 53%
    17:00 +31°C° 0 mm 2 m/S 709 mmHg 61%
    18:00 +29°C° 0 mm 2 m/S 709 mmHg 69%
    19:00 +28°C° 0 mm 2 m/S 709 mmHg 76%
    20:00 +27°C° 0 mm 2 m/S 710 mmHg 78%
    21:00 +27°C° 0 mm 2 m/S 710 mmHg 80%
    22:00 +26°C° 0 mm 2 m/S 711 mmHg 82%
    23:00 +26°C° 0.1 mm 2 m/S 711 mmHg 84%

    9 April, Donnerstag

    Zeit Temperatur Niederschläge Wind Luftdruck Luftfeuchtigkeit
    00:00 +26°C° 0.1 mm 2 m/S 710 mmHg 85%
    01:00 +26°C° 0.1 mm 2 m/S 710 mmHg 87%
    02:00 +26°C° 0.1 mm 1 m/S 710 mmHg 87%
    03:00 +25°C° 0.1 mm 1 m/S 710 mmHg 87%
    04:00 +25°C° 0.1 mm 1 m/S 710 mmHg 87%
    05:00 +26°C° 0 mm 1 m/S 710 mmHg 83%
    06:00 +27°C° 0 mm 1 m/S 711 mmHg 80%
    07:00 +27°C° 0 mm 1 m/S 711 mmHg 77%
    08:00 +29°C° 0 mm 1 m/S 711 mmHg 70%
    09:00 +30°C° 0 mm 1 m/S 711 mmHg 63%
    10:00 +32°C° 0 mm 2 m/S 712 mmHg 56%
    11:00 +34°C° 0.1 mm 2 m/S 711 mmHg 52%
    12:00 +34°C° 0.1 mm 2 m/S 710 mmHg 49%
    13:00 +35°C° 0.1 mm 2 m/S 710 mmHg 45%
    14:00 +35°C° 0 mm 2 m/S 709 mmHg 45%
    15:00 +35°C° 0 mm 2 m/S 709 mmHg 45%
    16:00 +35°C° 0 mm 2 m/S 708 mmHg 44%
    17:00 +32°C° 0 mm 2 m/S 709 mmHg 53%
    18:00 +30°C° 0 mm 2 m/S 709 mmHg 61%
    19:00 +28°C° 0 mm 2 m/S 709 mmHg 70%
    20:00 +28°C° 0 mm 2 m/S 710 mmHg 71%
    21:00 +28°C° 0 mm 1 m/S 710 mmHg 73%
    22:00 +28°C° 0 mm 1 m/S 711 mmHg 75%
    23:00 +27°C° 0.1 mm 1 m/S 710 mmHg 75%

    10 April, Freitag

    Zeit Temperatur Niederschläge Wind Luftdruck Luftfeuchtigkeit
    00:00 +27°C° 0.1 mm 1 m/S 710 mmHg 76%
    01:00 +27°C° 0.1 mm 1 m/S 710 mmHg 76%
    02:00 +27°C° 0 mm 1 m/S 710 mmHg 76%
    03:00 +26°C° 0 mm 1 m/S 710 mmHg 75%
    04:00 +26°C° 0 mm 1 m/S 710 mmHg 75%
    05:00 +27°C° 0 mm 1 m/S 711 mmHg 72%
    06:00 +27°C° 0 mm 1 m/S 711 mmHg 69%
    07:00 +28°C° 0 mm 1 m/S 712 mmHg 66%
    08:00 +30°C° 0 mm 1 m/S 712 mmHg 61%
    09:00 +31°C° 0 mm 2 m/S 712 mmHg 55%
    10:00 +32°C° 0 mm 2 m/S 712 mmHg 49%
    11:00 +34°C° 0 mm 2 m/S 712 mmHg 46%
    12:00 +35°C° 0 mm 2 m/S 711 mmHg 43%
    13:00 +36°C° 0 mm 2 m/S 710 mmHg 40%
    14:00 +35°C° 0 mm 2 m/S 710 mmHg 41%
    15:00 +35°C° 0 mm 2 m/S 709 mmHg 41%
    16:00 +34°C° 0 mm 1 m/S 709 mmHg 42%
    17:00 +32°C° 0 mm 1 m/S 709 mmHg 49%
    18:00 +31°C° 0 mm 2 m/S 709 mmHg 57%
    19:00 +29°C° 0 mm 2 m/S 710 mmHg 64%
    20:00 +28°C° 0 mm 2 m/S 710 mmHg 66%
    21:00 +28°C° 0 mm 1 m/S 710 mmHg 69%
    22:00 +28°C° 0 mm 1 m/S 711 mmHg 71%
    23:00 +27°C° 0 mm 1 m/S 711 mmHg 72%
    Mehr zeigen